Content
SEND FEEDBACK

Daily
Averages
Monthly
Summary
United States of America

WILMINGTON, NORTH CAROLINA


Home > North America > United States > North Carolina
Elevation: 72 feet     Latitude: 34 16N     Longitude: 077 54W

WEATHER
 
SELECT A DAY
Number of Records: 213,364;   Date Range: 1/1/95 - 11/26/14
 
SHARE

PRINT THIS DATA

[ ← Previous Day ]
WEATHER ALMANAC - MARCH 25, 2014
[ Next Day → ]
[ °C ]   °F
Weather ElementAverageHighLow
Temperature47.6 °F55 °F (1:53 pm)37 °F (1:53 am)
Dewpoint42.2 °F48 °F (11:53 am)30.9 °F (11:53 pm)
Humidity81.8 %93 % (3:48 pm)54 % (5:53 am)
Barometer29.81 in30.08 in (1:53 am)29.70 in (3:53 pm)
Wind Speed11.1 mph20.7 mph (8:53 pm)
Wind Gust32.2 mph (8:53 pm)
Weather ElementAverage
Visibility8 mi
Wind DirectionSSW (211.6 °)

Weather ElementTotal
Precipitation0.68 in
Heating Degree Days19 (Base 65)
Averaged from 44 records on March 25, 2014
WEATHER CONDITIONS BREAKOUT
WIND DIRECTION BREAKOUT
WEATHER BY HOUR - MARCH 25, 2014
[ °C ]   °F
Local TimeTemperatureDewpointHumidityBarometerVisibilityWind DirectionWind SpeedGust SpeedPrecipitationEventsConditions
1:53 AM37.0 °F32.0 °F82 %30.08 in10.0 miNNE (30°)6.9 mphClear
2:53 AM39.0 °F33.1 °F79 %30.05 in10.0 miEast (90°)4.6 mphPartly Cloudy
3:53 AM46.9 °F35.1 °F63 %30.01 in10.0 miENE (70°)9.2 mphMostly Cloudy
4:53 AM48.0 °F34.0 °F58 %29.99 in10.0 miENE (60°)9.2 mphOvercast
5:53 AM48.9 °F33.1 °F54 %29.97 in10.0 miEast (80°)8.1 mphOvercast
6:53 AM44.1 °F37.9 °F79 %29.97 in9.0 miNNE (20°)4.6 mph0.02 inRainLight Rain
7:53 AM42.1 °F37.9 °F85 %29.96 in7.0 miCalm0.04 inRainLight Rain
8:53 AM44.1 °F41.0 °F89 %29.94 in10.0 miEast (90°)5.8 mph0.02 inRainLight Rain
9:53 AM48.0 °F44.1 °F86 %29.92 in10.0 miNNE (30°)6.9 mph0.00 inRainLight Rain
10:05 AM48.0 °F44.1 °F86 %29.91 in9.0 miNE (50°)6.9 mph0.01 inRainLight Rain
10:53 AM48.9 °F46.0 °F90 %29.91 in4.0 miESE (110°)4.6 mph0.06 inRainRain
11:42 AM50.0 °F46.0 °F86 %29.84 in10.0 miEast (90°)12.7 mph21.9 mph0.03 inRainLight Rain
11:53 AM51.1 °F48.0 °F89 %29.83 in10.0 miEast (100°)11.5 mph19.6 mph0.03 inMostly Cloudy
12:53 PM54.0 °F46.9 °F77 %29.78 in10.0 miENE (70°)12.7 mphMostly Cloudy
1:53 PM55.0 °F45.0 °F69 %29.75 in10.0 miCalmMostly Cloudy
2:09 PM54.0 °F46.0 °F75 %29.75 in2.5 miCalm0.01 inRainRain
2:30 PM54.0 °F46.9 °F77 %29.74 in5.0 miCalm0.05 inRainLight Rain
2:53 PM53.1 °F48.0 °F83 %29.73 in10.0 miNNW (330°)5.8 mph0.06 inOvercast
3:02 PM53.1 °F48.0 °F83 %29.72 in10.0 miNW (310°)12.7 mphOvercast
3:15 PM50.0 °F46.9 °F89 %29.71 in8.0 miNW (320°)11.5 mph0.00 inRainLight Rain
3:48 PM48.2 °F46.4 °F93 %29.71 in2.5 miNW (320°)12.7 mph0.02 inRainLight Rain
3:53 PM48.9 °F46.0 °F90 %29.70 in1.8 miNW (310°)11.5 mph0.08 inRainRain
3:55 PM48.9 °F46.0 °F90 %29.70 in2.0 miNW (320°)12.7 mph0.00 inRainLight Rain
3:58 PM48.9 °F46.0 °F90 %29.70 in3.0 miNW (320°)11.5 mph0.00 inRainLight Rain
4:03 PM48.9 °F46.0 °F90 %29.70 in8.0 miWNW (300°)10.4 mph0.01 inRainLight Rain
4:11 PM48.9 °F46.0 °F90 %29.70 in4.0 miNW (310°)11.5 mph0.02 inRainLight Rain
4:20 PM48.9 °F46.0 °F90 %29.70 in7.0 miNW (310°)11.5 mph0.02 inRainLight Rain
4:53 PM48.9 °F46.0 °F90 %29.70 in5.0 miNW (310°)13.8 mph0.03 inRainLight Rain
5:21 PM48.0 °F44.1 °F86 %29.71 in2.5 miWNW (300°)17.3 mph23.0 mph0.03 inRainRain
5:30 PM48.0 °F44.1 °F86 %29.72 in3.0 miWNW (300°)16.1 mph0.04 inRainLight Rain
5:37 PM48.0 °F44.1 °F86 %29.72 in8.0 miNW (310°)15.0 mph0.05 inRainLight Rain
5:53 PM48.0 °F44.1 °F86 %29.71 in10.0 miNW (310°)10.4 mph18.4 mph0.05 inOvercast
6:08 PM48.0 °F44.1 °F86 %29.71 in10.0 miNW (320°)12.7 mphMostly Cloudy
6:14 PM48.0 °F44.1 °F86 %29.71 in10.0 miNW (310°)12.7 mphOvercast
6:29 PM48.0 °F43.0 °F83 %29.72 in10.0 miNW (320°)15.0 mphOvercast
6:53 PM46.9 °F42.1 °F83 %29.73 in10.0 miNW (320°)19.6 mphOvercast
7:20 PM46.0 °F41.0 °F83 %29.76 in10.0 miNW (320°)15.0 mph28.8 mphOvercast
7:42 PM46.0 °F39.9 °F79 %29.77 in10.0 miNW (310°)17.3 mph24.2 mphOvercast
7:53 PM46.0 °F39.0 °F76 %29.78 in10.0 miWNW (300°)19.6 mph31.1 mphOvercast
8:05 PM45.0 °F39.0 °F80 %29.78 in10.0 miNW (310°)17.3 mphOvercast
8:53 PM44.1 °F37.9 °F79 %29.81 in9.0 miWNW (300°)20.7 mph32.2 mph0.00 inRainLight Rain
9:53 PM43.0 °F36.0 °F76 %29.84 in10.0 miNW (310°)18.4 mph27.6 mph0.00 inMostly Cloudy
10:53 PM42.1 °F35.1 °F76 %29.88 in10.0 miNW (310°)16.1 mph25.3 mphScattered Clouds
11:53 PM41.0 °F30.9 °F67 %29.91 in10.0 miNW (310°)15.0 mph21.9 mphClear
Hourly data recorded from KILM, located miles away from Wilmington, North Carolina







STORIES FROM OUR PARTNERS